Погода в Климковице

Чехия     49°47′12″N   18°07′43″E
В апреле 2022 года жителям России запретили посещать сайт meteo.paraplan.net по решению Генеральной прокуратуры. Аудитория сайта уменьшилась в 10 раз. Владельцы сайта не видят смысла в поддержке погодного сервера в таких условиях. Сайт будет закрыт в октябре.
темп.,
°C
ветер,
м/с
пор.,
м/с
влажн.,
%
обл.,
%
осадки,
мм/ч
давл.,
гПа
погр.,
м
3 октября, пн
пн323:00+10зюз35925 1.2 1015132
02:00+8юз359414 1.4 1017128
05:00+7юз369430 0.1 1017164
08:00+8зюз378733 0.2 1018245
11:00+10зсз3880100 0.3 1018627
14:00+10сз51178100 0.4 10191105
17:00+10сз51077100 0.1 1019816
20:00+10зсз41074100 0.1 1020533
4 октября, вт
вт423:00+10з3875100 0.1 1020336
02:00+8зюз358695 0.5 1020140
05:00+9зюз2386100 0.3 1019117
08:00+10зюз258762 0.9 1020192
11:00+11ссз587743 0.9 1022754
14:00+12с2467100 1.1 1022655
17:00+13в126792 0.0 1022338
20:00+9юв11828 0.0 102410
5 октября, ср
ср523:00+8ююв228529 0.0 102513
02:00+7ююз22868 0.0 102532
05:00+7ююз3488100 0.0 102462
08:00+9ююз258290 0.0 1025130
11:00+15юз5960100 0.0 1023612
14:00+18юз6951100 0.0 1022898
17:00+16ююз5864100 0.0 1022437
20:00+11ююз3579100 0.0 1023115
6 октября, чт
чт623:00+12ююз3677100 0.0 1024123
02:00+10юз358396 0.0 102488
05:00+10ююз488596 0.0 1025153
08:00+11ююз388253 0.0 1026192
11:00+16зюз566450 0.0 1027517
14:00+20юз125412 0.0 10281112
17:00+15с366798 0.0 1029358
20:00+14всв227141 0.0 103174
7 октября, пт
пт723:00+13вюв117358 0.0 103222
02:00+10всв118266 0.0 103113
05:00+9св118710 0.0 103016
08:00+9св118547 0.0 102924
11:00+15зюз11650 0.0 1028393
14:00+19зюз255813 0.0 10251027
17:00+19юз24652 0.0 1023190
20:00+13ююз227924 0.0 102329